When you browse on this site, cookies collect data to enhance your experience and personalize the content and advertising you see.
Visit our Privacy Policy to learn more. By continuing to use the site, you agree to this use of cookies and data.
  • In United Kingdom
  • List of Countries
  • For 7 days
  • Water Temperature
  • Weather Map
  • Weather Widgets
  • user-avatar
    Login

    Hourly Weather Celujki

    Today, 3 April, Friday

    Time Temperature Precipitation Wind Pressure Humidity
    00:00 +1°C° 0 mm 3 mps 740 mmHg 75%
    01:00 0°C° 0 mm 4 mps 740 mmHg 75%
    02:00 0°C° 0 mm 4 mps 739 mmHg 72%
    03:00 0°C° 0 mm 4 mps 739 mmHg 70%
    04:00 0°C° 0 mm 5 mps 739 mmHg 68%
    05:00 -1°C° 0 mm 6 mps 738 mmHg 66%
    06:00 +1°C° 0 mm 6 mps 739 mmHg 64%
    07:00 +2°C° 0 mm 6 mps 739 mmHg 63%
    08:00 +2°C° 0 mm 7 mps 739 mmHg 61%
    09:00 +3°C° 0 mm 7 mps 740 mmHg 63%
    10:00 +4°C° 0 mm 8 mps 740 mmHg 65%
    11:00 +5°C° 0 mm 8 mps 740 mmHg 67%
    12:00 +5°C° 0.1 mm 8 mps 741 mmHg 63%
    13:00 +5°C° 0.1 mm 8 mps 741 mmHg 59%
    14:00 +6°C° 0 mm 7 mps 742 mmHg 61%
    15:00 +6°C° 0 mm 7 mps 742 mmHg 55%
    16:00 +6°C° 0 mm 7 mps 743 mmHg 50%
    17:00 +8°C° 0 mm 7 mps 743 mmHg 45%
    18:00 +5°C° 0 mm 6 mps 743 mmHg 50%
    19:00 +5°C° 0 mm 5 mps 744 mmHg 55%
    20:00 +4°C° 0 mm 4 mps 745 mmHg 60%
    21:00 +3°C° 0 mm 4 mps 745 mmHg 63%
    22:00 +1°C° 0 mm 4 mps 746 mmHg 65%
    23:00 +1°C° 0 mm 4 mps 747 mmHg 68%

    Tomorrow, 4 April, Saturday

    Time Temperature Precipitation Wind Pressure Humidity
    00:00 0°C° 0 mm 4 mps 747 mmHg 69%
    01:00 +1°C° 0 mm 3 mps 748 mmHg 70%
    02:00 0°C° 0 mm 3 mps 748 mmHg 71%
    03:00 0°C° 0 mm 3 mps 749 mmHg 73%
    04:00 -1°C° 0 mm 3 mps 749 mmHg 74%
    05:00 -1°C° 0 mm 3 mps 749 mmHg 76%
    06:00 0°C° 0 mm 3 mps 750 mmHg 71%
    07:00 +1°C° 0 mm 3 mps 751 mmHg 67%
    08:00 +1°C° 0 mm 4 mps 751 mmHg 62%
    09:00 +4°C° 0 mm 4 mps 752 mmHg 57%
    10:00 +5°C° 0 mm 4 mps 752 mmHg 51%
    11:00 +7°C° 0 mm 4 mps 753 mmHg 46%
    12:00 +7°C° 0 mm 4 mps 753 mmHg 44%
    13:00 +8°C° 0 mm 4 mps 754 mmHg 42%
    14:00 +8°C° 0 mm 4 mps 754 mmHg 40%
    15:00 +8°C° 0 mm 4 mps 754 mmHg 41%
    16:00 +8°C° 0 mm 4 mps 754 mmHg 42%
    17:00 +9°C° 0 mm 3 mps 754 mmHg 43%
    18:00 +7°C° 0 mm 3 mps 755 mmHg 48%
    19:00 +6°C° 0 mm 2 mps 755 mmHg 53%
    20:00 +5°C° 0 mm 2 mps 756 mmHg 58%
    21:00 +4°C° 0 mm 2 mps 756 mmHg 60%
    22:00 +5°C° 0 mm 1 mps 757 mmHg 62%
    23:00 +4°C° 0 mm 1 mps 757 mmHg 64%

    Day after tomorrow, 5 April, Sunday

    Time Temperature Precipitation Wind Pressure Humidity
    00:00 +4°C° 0 mm 1 mps 758 mmHg 65%
    01:00 +3°C° 0 mm 1 mps 758 mmHg 66%
    02:00 +3°C° 0 mm 1 mps 759 mmHg 67%
    03:00 +3°C° 0 mm 1 mps 759 mmHg 68%
    04:00 +1°C° 0 mm 0 mps 759 mmHg 69%
    05:00 +1°C° 0 mm 0 mps 760 mmHg 69%
    06:00 +3°C° 0 mm 1 mps 760 mmHg 66%
    07:00 +4°C° 0 mm 1 mps 760 mmHg 62%
    08:00 +6°C° 0 mm 1 mps 761 mmHg 58%
    09:00 +7°C° 0 mm 1 mps 761 mmHg 54%
    10:00 +9°C° 0 mm 1 mps 761 mmHg 50%
    11:00 +10°C° 0 mm 1 mps 762 mmHg 45%
    12:00 +11°C° 0 mm 1 mps 762 mmHg 43%
    13:00 +11°C° 0 mm 1 mps 762 mmHg 40%
    14:00 +12°C° 0 mm 1 mps 762 mmHg 37%
    15:00 +12°C° 0 mm 2 mps 761 mmHg 38%
    16:00 +12°C° 0 mm 2 mps 761 mmHg 38%
    17:00 +12°C° 0 mm 2 mps 761 mmHg 38%
    18:00 +10°C° 0 mm 2 mps 761 mmHg 42%
    19:00 +8°C° 0 mm 2 mps 761 mmHg 46%
    20:00 +7°C° 0 mm 2 mps 761 mmHg 50%
    21:00 +6°C° 0 mm 2 mps 761 mmHg 53%
    22:00 +5°C° 0 mm 3 mps 761 mmHg 55%
    23:00 +4°C° 0 mm 3 mps 761 mmHg 57%

    6 April, Monday

    Time Temperature Precipitation Wind Pressure Humidity
    00:00 +4°C° 0 mm 3 mps 762 mmHg 56%
    01:00 +3°C° 0 mm 3 mps 762 mmHg 55%
    02:00 +3°C° 0 mm 3 mps 762 mmHg 54%
    03:00 +2°C° 0 mm 3 mps 761 mmHg 54%
    04:00 +2°C° 0 mm 3 mps 761 mmHg 55%
    05:00 +1°C° 0 mm 3 mps 761 mmHg 55%
    06:00 +1°C° 0 mm 4 mps 761 mmHg 54%
    07:00 +3°C° 0 mm 4 mps 762 mmHg 54%
    08:00 +3°C° 0 mm 5 mps 762 mmHg 53%
    09:00 +6°C° 0 mm 5 mps 762 mmHg 49%
    10:00 +8°C° 0 mm 6 mps 762 mmHg 46%
    11:00 +10°C° 0 mm 6 mps 762 mmHg 42%
    12:00 +11°C° 0 mm 6 mps 761 mmHg 41%
    13:00 +13°C° 0 mm 6 mps 761 mmHg 39%
    14:00 +14°C° 0 mm 6 mps 761 mmHg 38%
    15:00 +14°C° 0 mm 5 mps 761 mmHg 39%
    16:00 +14°C° 0 mm 5 mps 760 mmHg 39%
    17:00 +13°C° 0 mm 5 mps 760 mmHg 40%
    18:00 +12°C° 0 mm 4 mps 760 mmHg 45%
    19:00 +10°C° 0 mm 4 mps 760 mmHg 51%
    20:00 +8°C° 0 mm 3 mps 760 mmHg 56%
    21:00 +8°C° 0 mm 3 mps 760 mmHg 57%
    22:00 +7°C° 0 mm 3 mps 760 mmHg 59%
    23:00 +5°C° 0 mm 3 mps 760 mmHg 61%

    7 April, Tuesday

    Time Temperature Precipitation Wind Pressure Humidity
    00:00 +5°C° 0 mm 3 mps 760 mmHg 63%
    01:00 +4°C° 0 mm 3 mps 760 mmHg 66%
    02:00 +4°C° 0 mm 3 mps 760 mmHg 69%
    03:00 +4°C° 0 mm 3 mps 760 mmHg 69%
    04:00 +3°C° 0 mm 3 mps 760 mmHg 69%
    05:00 +3°C° 0 mm 3 mps 760 mmHg 69%
    06:00 +4°C° 0 mm 3 mps 760 mmHg 66%
    07:00 +5°C° 0 mm 3 mps 760 mmHg 63%
    08:00 +7°C° 0 mm 3 mps 760 mmHg 60%
    09:00 +9°C° 0 mm 3 mps 760 mmHg 55%
    10:00 +11°C° 0 mm 3 mps 760 mmHg 49%
    11:00 +13°C° 0 mm 3 mps 760 mmHg 43%
    12:00 +14°C° 0 mm 3 mps 760 mmHg 41%
    13:00 +16°C° 0 mm 3 mps 760 mmHg 38%
    14:00 +17°C° 0 mm 3 mps 760 mmHg 35%
    15:00 +17°C° 0 mm 3 mps 760 mmHg 37%
    16:00 +17°C° 0 mm 3 mps 759 mmHg 38%
    17:00 +17°C° 0 mm 3 mps 759 mmHg 39%
    18:00 +16°C° 0 mm 2 mps 759 mmHg 44%
    19:00 +14°C° 0 mm 2 mps 759 mmHg 48%
    20:00 +12°C° 0 mm 2 mps 759 mmHg 53%
    21:00 +10°C° 0 mm 2 mps 759 mmHg 54%
    22:00 +10°C° 0 mm 2 mps 759 mmHg 55%
    23:00 +9°C° 0 mm 2 mps 759 mmHg 56%

    8 April, Wednesday

    Time Temperature Precipitation Wind Pressure Humidity
    00:00 +9°C° 0 mm 2 mps 759 mmHg 58%
    01:00 +8°C° 0 mm 2 mps 759 mmHg 60%
    02:00 +8°C° 0 mm 2 mps 759 mmHg 61%
    03:00 +7°C° 0 mm 2 mps 759 mmHg 67%
    04:00 +7°C° 0 mm 2 mps 759 mmHg 72%
    05:00 +7°C° 0 mm 1 mps 759 mmHg 77%
    06:00 +8°C° 0 mm 1 mps 759 mmHg 78%
    07:00 +8°C° 0 mm 2 mps 759 mmHg 79%
    08:00 +9°C° 0 mm 2 mps 760 mmHg 80%
    09:00 +12°C° 0 mm 2 mps 760 mmHg 74%
    10:00 +14°C° 0 mm 2 mps 760 mmHg 68%
    11:00 +15°C° 0 mm 2 mps 760 mmHg 62%
    12:00 +16°C° 0 mm 3 mps 759 mmHg 56%
    13:00 +17°C° 0 mm 3 mps 759 mmHg 51%
    14:00 +18°C° 0 mm 3 mps 759 mmHg 45%
    15:00 +18°C° 0 mm 3 mps 759 mmHg 43%
    16:00 +17°C° 0 mm 3 mps 758 mmHg 42%
    17:00 +17°C° 0 mm 3 mps 758 mmHg 40%
    18:00 +14°C° 0 mm 3 mps 758 mmHg 45%
    19:00 +14°C° 0 mm 2 mps 758 mmHg 49%
    20:00 +12°C° 0 mm 2 mps 758 mmHg 54%
    21:00 +11°C° 0 mm 1 mps 758 mmHg 55%
    22:00 +11°C° 0 mm 1 mps 758 mmHg 57%
    23:00 +10°C° 0 mm 1 mps 758 mmHg 58%
    Show more